Regional Weather Roundup
Issued by NWS

Home | Current Version | Previous Version | Graphics & Text | Print | Product List | Glossary On
Versions: 1 2 3 4 5 6 7 8 9 10 11 12 13 14 15 16 17 18 19 20 21 22 23 24 25 26 27 28 29 30 31 32 33 34 35 36 37 38 39 40 41 42 43 44 45 46 47 48 49 50
000
ASUS45 KBOU 291710
RWRCO

WEATHER ROUNDUP FOR COLORADO
NATIONAL WEATHER SERVICE PUEBLO CO
1100 AM MDT WED JUL 29 2015

NOTE: "FAIR" INDICATES FEW OR NO CLOUDS BELOW 12000 FEET WITH NO
SIGNIFICANT WEATHER AND/OR OBSTRUCTIONS TO VISIBILITY.

COZ001>005-013-030-031-291800-
...NORTHWEST COLORADO...

CITY           SKY/WX    TMP DP  RH WIND       PRES   REMARKS
CRAIG          SUNNY     70  32  24 VRB5      30.38F
HAYDEN         SUNNY     66  25  20 CALM      30.39F
MEEKER         SUNNY     69  34  27 SW5       30.38F
MOUNT WERNER   NOT AVBL
STEAMBOAT SPGS FAIR      65  37  34 CALM      30.40F
WALDEN         FAIR      63  32  31 CALM      30.47S
$$

COZ006>008-011-291800-
...WEST CENTRAL VALLEYS...

CITY           SKY/WX    TMP DP  RH WIND       PRES   REMARKS
GRAND JUNCTION SUNNY     78  34  20 S13       30.26F
MONTROSE       SUNNY     77  32  19 CALM      30.33F
EAGLE          NOT AVBL
RIFLE          SUNNY     75  32  20 VRB3      30.31F
DELTA          NOT AVBL
NUCLA          FAIR      77  34  20 CALM      30.35S
$$

COZ017>023-064>068-291800-
...SOUTHWEST COLORADO...

CITY           SKY/WX    TMP DP  RH WIND       PRES   REMARKS
DURANGO        MOSUNNY   76  49  38 SE6       30.36F
CORTEZ         SUNNY     81  45  28 W6        30.29F
PAGOSA SPRINGS FAIR      70  45  39 S3        30.45S
TELLURIDE      SUNNY     71  24  16 W7        30.55S
WOLF CREEK PAS NOT AVBL
$$

COZ009-010-012-014-032>034-037-058>063-291800-
...CENTRAL COLORADO...

CITY           SKY/WX    TMP DP  RH WIND       PRES   REMARKS
ASPEN          SUNNY     69  40  34 N6        30.45S
BUENA VISTA    FAIR      68  40  34 CALM      30.47S
COPPER MTN     SUNNY     59  25  27 W6        30.75S
BERTHOUD PASS  FAIR      50  39  66 NW15G26   30.79S
COTTONWOOD PAS SUNNY     68  41  37 SE6       30.60S
GUNNISON       SUNNY     66  36  32 SW3       30.47F
KREMMLING      SUNNY     70  36  28 CALM      30.45F
LEADVILLE      SUNNY     64  28  25 VRB5      30.57F
MONARCH PASS   MOSUNNY   55  36  47 W12G18    30.85R
SALIDA         FAIR      72  43  34 CALM      30.52S
NIWOT RIDGE    NOT AVBL
SUNLIGHT       SUNNY     63  34  34 CALM      30.70R
WILKERSON PASS SUNNY     55  39  54 CALM      30.73R
$$

COZ069>075-291800-
...SAN LUIS VALLEY/SANGRE DE CRISTO MOUNTAINS...

CITY           SKY/WX    TMP DP  RH WIND       PRES   REMARKS
ALAMOSA        MOSUNNY   74  50  42 S8        30.41F
LA VETA PASS   CLOUDY    61  45  55 MISG      30.63S
SAGUACHE       PTSUNNY   68  50  52 S3        30.46S
$$

COZ035-036-038>040-291800-
...NORTHERN COLORADO FRONT RANGE...

CITY           SKY/WX    TMP DP  RH WIND       PRES   REMARKS
DENVER INTL AP MOSUNNY   79  47  32 S12       30.32S
DMNS CITY PARK NOT AVBL
AURORA         MOSUNNY   76  49  38 SW8       30.34S
FRONT RANGE AP MOSUNNY   75  46  35 SE9G18    30.34S
ERIE MUNI ARPT FAIR      73  43  34 NE3       30.31F
BOULDER MUN AP FAIR      72  43  35 E5        30.31F
CENTENNIAL     MOSUNNY   75  48  38 CALM      30.34F
BROOMFIELD     MOSUNNY   73  45  35 VRB5      30.34F
LOVELAND       SUNNY     73  46  38 N5        30.31F
LONGMONT       FAIR      76  45  33 NW6       30.32F
$$

COZ041-046-047-076>085-087-088-291800-
...PIKES PEAK/PALMER DIVIDE AND SOUTHERN FOOTHILLS...

CITY           SKY/WX    TMP DP  RH WIND       PRES   REMARKS
COLO. SPRINGS  PTSUNNY   73  50  44 SE17      30.43R
A. F. ACADEMY  SUNNY     71  49  45 SE15G23   30.42R
ELLICOTT       CLOUDY   N/A N/A N/A SE21      30.42R
FALCON         FAIR      69  49  47 S14G21    30.47R
FORT CARSON    PTSUNNY   72  53  51 SE10G21   30.40R
LIMON          PTSUNNY   68  51  54 SE21G30   30.40R
MONUMENT HILL  SUNNY     68  50  52 S18G24    30.44R
TRINIDAD       MOSUNNY   74  50  42 SE6       30.38S
$$

COZ042>045-048>051-090-091-291800-
...NORTHEAST COLORADO...

CITY           SKY/WX    TMP DP  RH WIND       PRES   REMARKS
GREELEY ARPT   SUNNY     81  50  34 S13       30.30S
AKRON          SUNNY     76  44  32 SE18G24   30.34R
BURLINGTON     MOSUNNY   73  49  42 SE10G21   30.36R
WRAY           FAIR      76  49  38 E13       30.32S
STERLING       NOT AVBL
HOLYOKE        FAIR      77  52  41 S10G16    30.32R
FORT MORGAN    FAIR      78  47  34 SE10      30.31S
$$

COZ086-089-092>099-291800-
...SOUTHEAST COLORADO...

CITY           SKY/WX    TMP DP  RH WIND       PRES   REMARKS
PUEBLO         PTSUNNY   78  56  46 SE12G23   30.33R
LA JUNTA       PTSUNNY   78  48  34 MISG      30.32R
LAMAR          MOSUNNY   77  47  34 SE13G22   30.30R
SPRINGFIELD      N/A     71  49  45 E10       30.34S
$$




USA.gov is the U.S. government's official web portal to all federal, state and local government web resources and services.